Flag for Pakistan Weather past 2 weeks in Islamabad, Pakistan

Now
95 °F

Passing clouds.


Feels Like: 93 °F
Forecast: 65 / 96 °F
Wind: 9 mph from Southeast

Location: Islamabad Airport

Current Time: Apr 25, 2015 at 4:56:39 PM

Latest Report: Apr 25, 2015 at 4:00 PM


Visibility: N/A

Pressure: 29.77 "Hg

Humidity: 26%

Dew point: 55 °F

Location of IslamabadLocation

Historic Weather in Islamabad — Graph

°F

Islamabad temperature yesterday

Maximum temperature yesterday: 95 °F (at 2:00 PM)
Minimum temperature yesterday: 68 °F (at 5:00 AM)
Average temperature yesterday: 82 °F

Past Weeks' High & Low Weather Summary

 TemperatureHumidityPressure
High102 °F (Apr 23, 8:00 PM)100% (Apr 16, 4:00 AM)30.15 "Hg (Apr 16, 4:00 AM)
Low63 °F (Apr 11, 6:00 AM)17% (Apr 23, 8:00 PM)29.71 "Hg (Apr 18, 3:00 PM)
Average77 °F56%29.88 "Hg
* Reported Apr 10 3:00 PM — Apr 25 3:00 PM, Islamabad, Weather by CustomWeather, © 2015

Note: Actual official high and low records may vary slightly from our data, if they occured in-between our weather recording intervals... More about our weather records

Advertising

Islamabad weather history for previous 24 hours

 ConditionsComfort  
Time TempWeatherWind HumidityBarometerVisibility
3:00 PM
Sat, Apr 25
95 °FPassing clouds.12 mph30%29.77 "HgN/A
2:00 PM93 °FPassing clouds.14 mph34%29.80 "HgN/A
1:00 PM91 °FClear.9 mph38%29.83 "Hg4 mi
11:00 AM90 °FClear.7 mph41%29.83 "Hg4 mi
10:00 AM84 °FClear.7 mph43%29.83 "Hg4 mi
9:00 AM82 °FClear.7 mph45%29.83 "Hg4 mi
8:00 AM77 °FClear.No wind51%29.80 "Hg4 mi
7:00 AM73 °FClear.No wind53%29.80 "Hg4 mi
5:00 AM68 °FClear.No wind64%29.74 "Hg4 mi
4:00 AM70 °FClear.9 mph69%29.74 "Hg5 mi
3:00 AM72 °FClear.9 mph65%29.77 "Hg5 mi
2:00 AM72 °FClear.9 mph65%29.77 "Hg5 mi
1:00 AM73 °FClear.9 mph61%29.77 "Hg5 mi
12:00 AM73 °FPassing clouds.9 mph65%29.80 "Hg5 mi
11:00 PM
Fri, Apr 24
75 °FPassing clouds.9 mph57%29.80 "Hg5 mi
10:00 PM79 °FPassing clouds.9 mph54%29.80 "Hg5 mi
9:00 PM81 °FPassing clouds.9 mph51%29.80 "HgN/A
8:00 PM86 °FPassing clouds.9 mph40%29.77 "HgN/A
7:00 PM90 °FPassing clouds.7 mph33%29.77 "HgN/A
6:00 PM91 °FPassing clouds.12 mph30%29.74 "HgN/A
5:00 PM93 °FPassing clouds.16 mph26%29.74 "HgN/A
4:00 PM95 °FPassing clouds.18 mph22%29.74 "HgN/A
Weather by CustomWeather, © 2015

See weather overviewHow to use our weather pages